Fulton, NY

7:33 PM EDT on July 24, 2017 (GMT -0400)
Oswego County

Weather History for KFZY - October, 2012

Change the Weather History Date:

Thursday, October 18, 2012

  Actual Average (KSYR) Record (KSYR)
Temperature  
Mean Temperature 58 °F -  
Max Temperature 68 °F 57 °F 83 °F (1947)
Min Temperature 50 °F 40 °F 26 °F (1939)
Degree Days  
Heating Degree Days 7    
Growing Degree Days 8 (Base 50)    
Moisture  
Dew Point 44 °F    
Average Humidity 61    
Maximum Humidity 77    
Minimum Humidity 45    
Precipitation  
Precipitation 0.00 in - - ()
Sea Level Pressure  
Sea Level Pressure 29.84 in    
Wind  
Wind Speed 7 mph (SE)    
Max Wind Speed 18 mph    
Max Gust Speed 29 mph    
Visibility 10 miles    
Events      
Averages and records for this station are not official NWS values.
T = Trace of Precipitation, MM = Missing Value Source: NWS Daily Summary

Daily Weather History Graph

Daily Weather History Graph

Search for Another Location

Airport or City:

Trip Planner

Search our weather history database for the weather conditions in past years. The results will help you decide how hot, cold, wet, or windy it might be!

Date:

Astronomy

Oct. 18, 2012 Rise Set
Actual Time 7:23 AM EDT 6:16 PM EDT
Civil Twilight 6:54 AM EDT 6:45 PM EDT
Nautical Twilight 6:21 AM EDT 7:18 PM EDT
Astronomical Twilight 5:48 AM EDT 7:51 PM EDT
Moon 11:09 AM EDT (10/18) 8:42 PM EDT (10/18)
Length of Visible Light 11h 50m
Length of Day
10h 53m
Waxing Crescent, 14% of the Moon is Illuminated
Oct 18
Waxing Crescent
Oct 21
First Quarter
Oct 29
Full
Nov 6
Last Quarter
Nov 13
New

Hourly Weather History & Observations

Time (EDT) Temp. Dew Point Humidity Pressure Visibility Wind Dir Wind Speed Gust Speed Precip Events Conditions
12:54 AM 53.1 °F 42.1 °F 66% 29.87 in 10.0 mi SE 5.8 mph - N/A   Partly Cloudy
1:54 AM 52.0 °F 43.0 °F 71% 29.87 in 10.0 mi Variable 4.6 mph - N/A   Clear
2:54 AM 51.1 °F 42.1 °F 71% 29.86 in 10.0 mi ESE 4.6 mph - N/A   Clear
3:54 AM 51.1 °F 42.1 °F 71% 29.85 in 10.0 mi Variable 5.8 mph - N/A   Clear
4:54 AM 50.0 °F 42.1 °F 74% 29.84 in 10.0 mi SE 4.6 mph - N/A   Clear
5:54 AM 50.0 °F 43.0 °F 77% 29.84 in 10.0 mi ESE 5.8 mph - N/A   Clear
6:54 AM 50.0 °F 43.0 °F 77% 29.85 in 10.0 mi SE 6.9 mph - N/A   Clear
7:54 AM 50.0 °F 43.0 °F 77% 29.86 in 10.0 mi SE 5.8 mph - N/A   Clear
8:54 AM 53.1 °F 44.1 °F 71% 29.86 in 10.0 mi SE 8.1 mph 18.4 mph N/A   Clear
10:54 AM 57.9 °F 46.0 °F 65% 29.84 in 10.0 mi SE 10.4 mph 23.0 mph N/A   Clear
11:54 AM 64.0 °F 46.9 °F 54% 29.83 in 10.0 mi SE 13.8 mph 28.8 mph N/A   Clear
12:54 PM 64.9 °F 46.0 °F 50% 29.81 in 9.0 mi SE 9.2 mph 23.0 mph N/A   Clear
1:54 PM 66.9 °F 46.0 °F 47% 29.79 in 10.0 mi SSE 8.1 mph 25.3 mph N/A   Clear
2:54 PM 66.0 °F 44.1 °F 45% 29.79 in 10.0 mi South 18.4 mph 28.8 mph N/A   Clear
3:54 PM 64.9 °F 43.0 °F 45% 29.81 in 10.0 mi SE 8.1 mph 23.0 mph N/A   Clear
4:54 PM 64.0 °F 43.0 °F 46% 29.82 in 10.0 mi SSE 8.1 mph 20.7 mph N/A   Clear
5:54 PM 63.0 °F 44.1 °F 50% 29.83 in 10.0 mi Variable 4.6 mph - N/A   Clear
6:54 PM 62.1 °F 44.1 °F 52% 29.83 in 10.0 mi SE 8.1 mph - N/A   Clear
7:54 PM 61.0 °F 45.0 °F 56% 29.84 in 10.0 mi SE 6.9 mph - N/A   Clear
8:54 PM 60.1 °F 45.0 °F 57% 29.85 in 10.0 mi Variable 3.5 mph - N/A   Clear
9:54 PM 61.0 °F 45.0 °F 56% 29.84 in 10.0 mi SE 4.6 mph - N/A   Clear
10:54 PM 60.1 °F 46.0 °F 60% 29.85 in 10.0 mi Variable 3.5 mph - N/A   Mostly Cloudy
11:54 PM 60.1 °F 46.9 °F 62% 29.84 in 10.0 mi SW 4.6 mph - N/A   Overcast